Location: Brno
(49.2000°N, 16.6330°E)
Time: 04:22:50
(UTC+02:00)

Vanguard 3 - Pass Details

Date: 05 August 2021
Orbit: 510 x 3260 km, 33.3° (Epoch: 16 September)

Event Time Altitude Azimuth Distance (km) Brightness Sun altitude
Rises 19:29:22 0° 250° (WSW) 5,485 12.3 7.9°
Reaches altitude 10° 19:32:41 10° 244° (WSW) 4,808 11.9 7.4°
Maximum altitude 19:46:28 46° 178° (S) 3,646 10.4 5.2°
Drops below altitude 10° 20:04:31 10° 114° (ESE) 6,184 11.0 2.5°
Sets 20:09:30 0° 109° (ESE) 7,119 11.2 1.7°
